When you browse on this site, cookies collect data to enhance your experience and personalize the content and advertising you see.
Visit our Privacy Policy to learn more. By continuing to use the site, you agree to this use of cookies and data.

Hourly Weather Chichester

Today, 21 September, Monday

Time Temperature Precipitation Wind Pressure Humidity
00:00 +14°C° 0 mm 4 mps 762 mmHg 78%
01:00 +14°C° 0 mm 4 mps 762 mmHg 81%
02:00 +13°C° 0 mm 4 mps 761 mmHg 84%
03:00 +13°C° 0 mm 4 mps 761 mmHg 87%
04:00 +13°C° 0 mm 4 mps 761 mmHg 88%
05:00 +13°C° 0 mm 3 mps 761 mmHg 89%
06:00 +12°C° 0 mm 3 mps 761 mmHg 90%
07:00 +14°C° 0 mm 3 mps 761 mmHg 81%
08:00 +17°C° 0 mm 3 mps 761 mmHg 72%
09:00 +19°C° 0 mm 3 mps 761 mmHg 64%
10:00 +20°C° 0 mm 3 mps 761 mmHg 58%
11:00 +23°C° 0 mm 2 mps 761 mmHg 51%
12:00 +23°C° 0 mm 2 mps 761 mmHg 46%
13:00 +24°C° 0 mm 2 mps 761 mmHg 47%
14:00 +24°C° 0 mm 2 mps 761 mmHg 47%
15:00 +24°C° 0 mm 2 mps 760 mmHg 48%
16:00 +23°C° 0 mm 2 mps 760 mmHg 55%
17:00 +20°C° 0 mm 2 mps 760 mmHg 62%
18:00 +20°C° 0 mm 1 mps 760 mmHg 69%
19:00 +19°C° 0 mm 1 mps 760 mmHg 71%
20:00 +19°C° 0 mm 1 mps 760 mmHg 74%
21:00 +18°C° 0 mm 1 mps 760 mmHg 77%
22:00 +18°C° 0 mm 1 mps 759 mmHg 78%
23:00 +18°C° 0 mm 1 mps 759 mmHg 79%

Tomorrow, 22 September, Tuesday

Time Temperature Precipitation Wind Pressure Humidity
00:00 +16°C° 0 mm 1 mps 759 mmHg 80%
01:00 +16°C° 0 mm 1 mps 758 mmHg 81%
02:00 +15°C° 0 mm 0 mps 758 mmHg 83%
03:00 +15°C° 0 mm 0 mps 758 mmHg 84%
04:00 +16°C° 0 mm 1 mps 757 mmHg 84%
05:00 +16°C° 0 mm 1 mps 757 mmHg 84%
06:00 +16°C° 0 mm 1 mps 757 mmHg 84%
07:00 +17°C° 0 mm 2 mps 757 mmHg 77%
08:00 +19°C° 0 mm 2 mps 756 mmHg 70%
09:00 +20°C° 0 mm 3 mps 756 mmHg 63%
10:00 +21°C° 0 mm 3 mps 756 mmHg 60%
11:00 +22°C° 0 mm 4 mps 755 mmHg 57%
12:00 +22°C° 0 mm 4 mps 755 mmHg 54%
13:00 +22°C° 0 mm 5 mps 754 mmHg 53%
14:00 +22°C° 0 mm 5 mps 754 mmHg 52%
15:00 +21°C° 0 mm 5 mps 753 mmHg 50%
16:00 +20°C° 0 mm 6 mps 753 mmHg 62%
17:00 +19°C° 0 mm 6 mps 753 mmHg 74%
18:00 +17°C° 0 mm 6 mps 752 mmHg 86%
19:00 +17°C° 0 mm 6 mps 752 mmHg 84%
20:00 +17°C° 0 mm 6 mps 752 mmHg 83%
21:00 +16°C° 0 mm 6 mps 752 mmHg 82%
22:00 +16°C° 0 mm 5 mps 752 mmHg 85%
23:00 +15°C° 0 mm 4 mps 752 mmHg 87%

Day after tomorrow, 23 September, Wednesday

Time Temperature Precipitation Wind Pressure Humidity
00:00 +15°C° 0 mm 4 mps 751 mmHg 90%
01:00 +15°C° 0.5 mm 4 mps 751 mmHg 91%
02:00 +16°C° 0.5 mm 5 mps 751 mmHg 91%
03:00 +16°C° 0.5 mm 6 mps 750 mmHg 91%
04:00 +15°C° 0.2 mm 6 mps 750 mmHg 91%
05:00 +15°C° 0.2 mm 5 mps 750 mmHg 90%
06:00 +14°C° 0.2 mm 5 mps 750 mmHg 89%
07:00 +15°C° 0.2 mm 6 mps 750 mmHg 86%
08:00 +16°C° 0.2 mm 6 mps 750 mmHg 84%
09:00 +16°C° 0.2 mm 7 mps 750 mmHg 81%
10:00 +17°C° 0.5 mm 7 mps 750 mmHg 81%
11:00 +17°C° 0.5 mm 7 mps 750 mmHg 81%
12:00 +17°C° 0.5 mm 7 mps 750 mmHg 81%
13:00 +16°C° 0.6 mm 7 mps 750 mmHg 81%
14:00 +16°C° 0.6 mm 6 mps 749 mmHg 81%
15:00 +16°C° 0.6 mm 5 mps 749 mmHg 82%
16:00 +15°C° 0.4 mm 5 mps 749 mmHg 82%
17:00 +14°C° 0.4 mm 5 mps 749 mmHg 82%
18:00 +13°C° 0.4 mm 5 mps 749 mmHg 82%
19:00 +12°C° 0 mm 5 mps 749 mmHg 82%
20:00 +10°C° 0 mm 5 mps 749 mmHg 81%
21:00 +9°C° 0 mm 6 mps 750 mmHg 80%
22:00 +8°C° 0 mm 5 mps 750 mmHg 82%
23:00 +8°C° 0 mm 5 mps 750 mmHg 84%

24 September, Thursday

Time Temperature Precipitation Wind Pressure Humidity
00:00 +7°C° 0 mm 4 mps 750 mmHg 86%
01:00 +7°C° 0 mm 4 mps 750 mmHg 84%
02:00 +7°C° 0 mm 4 mps 750 mmHg 82%
03:00 +7°C° 0 mm 4 mps 749 mmHg 80%
04:00 +8°C° 0.3 mm 6 mps 749 mmHg 80%
05:00 +10°C° 0.3 mm 9 mps 748 mmHg 80%
06:00 +11°C° 0.3 mm 11 mps 748 mmHg 80%
07:00 +11°C° 0.6 mm 10 mps 747 mmHg 76%
08:00 +12°C° 0.6 mm 10 mps 747 mmHg 72%
09:00 +12°C° 0.6 mm 9 mps 747 mmHg 67%
10:00 +12°C° 0.5 mm 10 mps 747 mmHg 67%
11:00 +12°C° 0.5 mm 10 mps 747 mmHg 67%
12:00 +12°C° 0.5 mm 10 mps 747 mmHg 67%
13:00 +12°C° 0.3 mm 10 mps 747 mmHg 65%
14:00 +12°C° 0.3 mm 11 mps 746 mmHg 63%
15:00 +12°C° 0.3 mm 11 mps 746 mmHg 61%
16:00 +11°C° 0.2 mm 10 mps 746 mmHg 64%
17:00 +10°C° 0.2 mm 9 mps 746 mmHg 67%
18:00 +9°C° 0.2 mm 8 mps 746 mmHg 69%
19:00 +9°C° 0.4 mm 7 mps 746 mmHg 72%
20:00 +8°C° 0.4 mm 7 mps 746 mmHg 74%
21:00 +8°C° 0.4 mm 7 mps 745 mmHg 76%
22:00 +8°C° 0.6 mm 7 mps 745 mmHg 77%
23:00 +9°C° 0.6 mm 7 mps 744 mmHg 79%

25 September, Friday

Time Temperature Precipitation Wind Pressure Humidity
00:00 +9°C° 0.6 mm 7 mps 744 mmHg 80%
01:00 +9°C° 1 mm 6 mps 743 mmHg 82%
02:00 +10°C° 1 mm 4 mps 743 mmHg 84%
03:00 +9°C° 1 mm 3 mps 743 mmHg 87%
04:00 +8°C° 0.4 mm 5 mps 744 mmHg 87%
05:00 +7°C° 0.4 mm 8 mps 744 mmHg 88%
06:00 +7°C° 0.4 mm 10 mps 745 mmHg 88%
07:00 +7°C° 0.3 mm 10 mps 746 mmHg 85%
08:00 +7°C° 0.3 mm 11 mps 747 mmHg 82%
09:00 +7°C° 0.3 mm 11 mps 748 mmHg 79%
10:00 +8°C° 0 mm 11 mps 749 mmHg 72%
11:00 +9°C° 0 mm 11 mps 750 mmHg 65%
12:00 +11°C° 0 mm 11 mps 751 mmHg 58%
13:00 +11°C° 0 mm 10 mps 752 mmHg 58%
14:00 +11°C° 0 mm 10 mps 753 mmHg 58%
15:00 +11°C° 0 mm 10 mps 753 mmHg 57%
16:00 +11°C° 0 mm 10 mps 754 mmHg 61%
17:00 +10°C° 0 mm 9 mps 755 mmHg 65%
18:00 +8°C° 0 mm 9 mps 756 mmHg 69%
19:00 +7°C° 0 mm 9 mps 757 mmHg 69%
20:00 +7°C° 0 mm 9 mps 758 mmHg 70%
21:00 +7°C° 0 mm 9 mps 758 mmHg 70%
22:00 +6°C° 0 mm 8 mps 759 mmHg 71%
23:00 +6°C° 0 mm 8 mps 759 mmHg 72%

26 September, Saturday

Time Temperature Precipitation Wind Pressure Humidity
00:00 +6°C° 0 mm 8 mps 760 mmHg 73%
01:00 +5°C° 0 mm 8 mps 760 mmHg 73%
02:00 +5°C° 0 mm 7 mps 760 mmHg 74%
03:00 +5°C° 0 mm 7 mps 760 mmHg 74%
04:00 +5°C° 0 mm 7 mps 761 mmHg 78%
05:00 +5°C° 0 mm 7 mps 761 mmHg 83%
06:00 +4°C° 0 mm 7 mps 762 mmHg 87%
07:00 +6°C° 0 mm 7 mps 762 mmHg 81%
08:00 +8°C° 0 mm 7 mps 762 mmHg 75%
09:00 +10°C° 0 mm 6 mps 763 mmHg 69%
10:00 +10°C° 0 mm 6 mps 763 mmHg 66%
11:00 +12°C° 0 mm 5 mps 763 mmHg 62%
12:00 +13°C° 0 mm 5 mps 763 mmHg 59%
13:00 +13°C° 0 mm 5 mps 762 mmHg 57%
14:00 +13°C° 0 mm 5 mps 762 mmHg 56%
15:00 +13°C° 0 mm 5 mps 762 mmHg 55%
16:00 +12°C° 0 mm 5 mps 762 mmHg 58%
17:00 +11°C° 0 mm 4 mps 762 mmHg 60%
18:00 +10°C° 0 mm 4 mps 761 mmHg 62%
19:00 +9°C° 0 mm 3 mps 761 mmHg 66%
20:00 +8°C° 0 mm 3 mps 761 mmHg 69%
21:00 +7°C° 0 mm 3 mps 761 mmHg 72%
22:00 +7°C° 0 mm 2 mps 761 mmHg 74%
23:00 +7°C° 0 mm 2 mps 761 mmHg 77%
Show more